Location: Allen Lane School
(37.8198°N, 89.7382°W)
Time: 04:41:09
(UTC+00:00)

Envisat - Visible Passes

Search period start: 27 February 2024 00:00
Search period end: 08 March 2024 00:00
Orbit: 762 x 764 km, 98.3° (Epoch: 26 February)

Date Brightness Start Highest point End Pass type
(mag) Time Alt. Az. Time Alt. Az. Time Alt. Az.
28 Feb 5.3 10:01:28 10° N 10:02:08 14° N 10:02:08 14° N visible
29 Feb 5.5 09:23:56 10° NNE 09:24:32 14° NNE 09:24:32 14° NNE visible
01 Mar 5.1 10:26:23 10° NNW 10:27:07 13° NNW 10:27:07 13° NNW visible
02 Mar 5.1 09:48:25 10° N 09:49:32 17° N 09:49:32 17° N visible
03 Mar 5.5 09:11:04 10° NNE 09:11:55 15° NNE 09:11:55 15° NNE visible
03 Mar 5.2 10:51:51 10° NNW 10:52:06 11° NNW 10:52:06 11° NNW visible
04 Mar 4.9 10:13:10 10° N 10:14:30 17° NNW 10:14:30 17° NNW visible
05 Mar 5.0 09:35:26 10° N 09:36:55 20° N 09:36:55 20° N visible
06 Mar 5.5 08:58:18 10° NNE 08:59:19 16° NNE 08:59:19 16° NNE visible
06 Mar 4.9 10:38:16 10° NNW 10:39:29 14° NNW 10:39:29 14° NNW visible
07 Mar 4.7 10:00:02 10° N 10:01:54 21° NNW 10:01:54 21° NNW visible
